FW4614 Weather Reports


time (UTC)temp
F
wind
direction
speed
knots
gust
knots
rain 1hr
in
rain 24hr
in
rain mn
in
humidity
%
barometer
mb
20260504185733 80 244 7.8 16.5 0.00 0.00 0.00 36 1012.4
20260504185227 80 229 5.2 16.5 0.00 0.00 0.00 35 1012.6
20260504184723 80 206 3.5 11.3 0.00 0.00 0.00 38 1012.4
20260504184210 80 203 3.5 9.6 0.00 0.00 0.00 40 1012.6
20260504183706 79 200 5.2 9.6 0.00 0.00 0.00 38 1012.7
20260504183200 79 208 7.8 13.9 0.00 0.00 0.00 39 1012.8
20260504182650 78 243 6.1 15.6 0.00 0.00 0.00 38 1012.8
20260504182144 79 222 5.2 15.6 0.00 0.00 0.00 39 1012.8
20260504181127 78 229 7.0 13.0 0.00 0.00 0.00 39 1013.0
20260504180625 78 242 7.8 13.9 0.00 0.00 0.00 40 1013.2
20260504180118 78 199 9.6 18.2 0.00 0.00 0.00 40 1013.2
20260504175609 78 228 8.7 18.2 0.00 0.00 0.00 39 1013.4
20260504174555 78 232 7.8 15.6 0.00 0.00 0.00 39 1013.5
20260504174047 77 348 7.8 13.9 0.00 0.00 0.00 41 1013.4
20260504173540 77 225 8.7 16.5 0.00 0.00 0.00 41 1013.5
20260504173033 77 217 9.6 16.5 0.00 0.00 0.00 40 1013.6
20260504172522 76 245 8.7 16.5 0.00 0.00 0.00 41 1013.6
20260504172016 77 236 7.8 15.6 0.00 0.00 0.00 41 1013.8
20260504171509 76 210 8.7 13.9 0.00 0.00 0.00 41 1013.8
20260504170959 76 233 8.7 14.8 0.00 0.00 0.00 41 1013.9
20260504170454 76 187 7.8 14.8 0.00 0.00 0.00 41 1014.0
20260504160409 74 215 7.8 13.0 0.00 0.00 0.00 47 1015.1
20260504150848 71 219 6.1 13.0 0.00 0.00 0.00 50 1015.2
20260504150350 71 226 6.1 13.0 0.00 0.00 0.00 51 1015.2
20260504140332 68 193 8.7 18.2 0.00 0.00 0.00 54 1015.8
20260504130809 61 217 0.9 2.6 0.00 0.00 0.00 72 1015.9
20260504130302 60 193 0.9 3.5 0.00 0.00 0.00 74 1016.0
20260504120253 50 200 0.0 0.0 0.00 0.00 0.00 78 1015.7
20260504110448 0 0.0 0.0 0.00 0.00 0.00 1015.3
20260504100257 48 200 0.0 0.0 0.00 0.00 0.00 81 1015.1
20260504081754 52 200 0.0 0.0 0.00 0.00 0.00 75 1015.0
20260504081250 53 200 0.0 0.0 0.00 0.00 0.00 73 1015.0
20260504080752 53 200 0.0 0.0 0.00 0.00 0.00 73 1015.0
20260504080255 53 200 0.0 0.0 0.00 0.00 0.00 71 1015.0
20260504070247 53 201 0.0 0.0 0.00 0.00 0.00 71 1015.7
20260504060239 52 216 0.0 0.9 0.00 0.00 0.00 75 1016.3
20260504050737 52 89 0.0 0.0 0.00 0.00 0.00 75 1016.3
20260504050241 52 89 0.0 0.0 0.00 0.00 0.00 75 1016.3
20260504045737 52 89 0.0 0.0 0.00 0.00 0.00 75 1016.4
20260504044739 52 89 0.0 0.0 0.00 0.00 0.00 74 1016.4
20260504044237 52 89 0.0 0.0 0.00 0.00 0.00 74 1016.3
20260504043740 52 89 0.0 0.0 0.00 0.00 0.00 74 1016.4
20260504043240 52 89 0.0 0.0 0.00 0.00 0.00 74 1016.4
20260504042742 53 89 0.0 0.0 0.00 0.00 0.00 73 1016.4
20260504042237 53 89 0.0 0.0 0.00 0.00 0.00 73 1016.5
20260504041736 53 89 0.0 0.0 0.00 0.00 0.00 72 1016.6
20260504041229 53 89 0.0 0.0 0.00 0.00 0.00 72 1016.6
20260504040733 53 89 0.0 0.0 0.00 0.00 0.00 72 1016.5
20260504040237 53 89 0.0 0.0 0.00 0.00 0.00 71 1016.6
20260504035731 53 89 0.0 0.0 0.00 0.00 0.00 71 1016.5
20260504035232 53 89 0.0 0.0 0.00 0.00 0.00 70 1016.6
20260504034730 54 89 0.0 0.0 0.00 0.00 0.00 69 1016.6
20260504034229 54 89 0.0 0.0 0.00 0.00 0.00 69 1016.6
20260504033731 55 89 0.0 0.0 0.00 0.00 0.00 69 1016.5
20260504033230 55 89 0.0 0.0 0.00 0.00 0.00 68 1016.5
20260504032725 55 89 0.0 0.0 0.00 0.00 0.00 68 1016.5
20260504032225 56 89 0.0 0.0 0.00 0.00 0.00 66 1016.6
20260504031727 56 89 0.0 0.0 0.00 0.00 0.00 67 1016.5
20260504031224 56 89 0.0 0.0 0.00 0.00 0.00 67 1016.5
20260504030726 56 89 0.0 0.0 0.00 0.00 0.00 66 1016.5
20260504030226 56 89 0.0 0.0 0.00 0.00 0.00 65 1016.4
20260504025723 57 89 0.0 0.0 0.00 0.00 0.00 64 1016.5
20260504025220 57 89 0.0 0.9 0.00 0.00 0.00 64 1016.6
20260504024722 57 89 0.0 0.9 0.00 0.00 0.00 63 1016.5
20260504024219 57 89 0.0 0.9 0.00 0.00 0.00 64 1016.5
20260504023717 57 73 0.0 0.9 0.00 0.00 0.00 64 1016.5
20260504023220 57 206 0.0 0.0 0.00 0.00 0.00 64 1016.5
20260504022715 57 206 0.0 0.0 0.00 0.00 0.00 64 1016.6
20260504022216 57 207 0.0 0.0 0.00 0.00 0.00 61 1016.6
20260504021720 58 206 0.0 0.0 0.00 0.00 0.00 60 1016.5
20260504021217 58 207 0.0 0.0 0.00 0.00 0.00 60 1016.5
20260504015711 59 206 0.0 0.0 0.00 0.00 0.00 57 1016.2
20260504015217 60 206 0.0 0.0 0.00 0.00 0.00 56 1016.2
20260504014715 60 207 0.0 0.0 0.00 0.00 0.00 55 1016.1
20260504014217 60 206 0.0 0.0 0.00 0.00 0.00 53 1015.9
20260504013720 61 206 0.0 0.0 0.00 0.00 0.00 53 1015.8
20260504013213 61 207 0.0 0.0 0.00 0.00 0.00 52 1015.7
20260504012711 61 206 0.0 0.0 0.00 0.00 0.00 52 1015.7
20260504012213 62 207 0.0 0.0 0.00 0.00 0.00 51 1015.6
20260504011711 62 206 0.0 0.0 0.00 0.00 0.00 51 1015.5
20260504011214 62 207 0.0 0.0 0.00 0.00 0.00 50 1015.4
20260504010710 62 207 0.0 0.0 0.00 0.00 0.00 49 1015.4
20260504005208 63 207 0.0 0.0 0.00 0.00 0.00 47 1015.2
20260504004709 64 206 0.0 0.0 0.00 0.00 0.00 47 1015.2
20260504003206 67 207 0.0 0.9 0.00 0.00 0.00 43 1015.0
20260504002707 67 207 0.0 0.9 0.00 0.00 0.00 41 1015.0
20260504002205 68 208 0.0 1.7 0.00 0.00 0.00 40 1015.0
20260504001705 69 208 0.9 3.5 0.00 0.00 0.00 39 1015.0
20260504001205 69 206 0.9 4.3 0.00 0.00 0.00 38 1015.1
20260504000704 70 220 1.7 6.1 0.00 0.00 0.00 37 1015.2
20260504000200 70 221 2.6 6.1 0.00 0.00 0.00 37 1015.3
20260503235703 70 219 3.5 7.0 0.00 0.00 0.00 37 1015.4
20260503235201 70 217 3.5 7.0 0.00 0.00 0.00 36 1015.4
20260503234659 71 211 2.6 6.1 0.00 0.00 0.00 36 1015.4
20260503234152 71 212 2.6 6.1 0.00 0.00 0.00 35 1015.5
20260503233647 71 221 3.5 6.1 0.00 0.00 0.00 34 1015.5
20260503233149 71 223 3.5 7.0 0.00 0.00 0.00 33 1015.6
20260503232651 71 205 1.7 7.0 0.00 0.00 0.00 35 1015.6
20260503232146 72 188 0.9 4.3 0.00 0.00 0.00 33 1015.6
20260503231650 71 181 1.7 5.2 0.00 0.00 0.00 35 1015.7
20260503231151 71 94 3.5 7.0 0.00 0.00 0.00 35 1015.8
20260503230701 71 221 3.5 7.0 0.00 0.00 0.00 33 1015.8
20260503230147 71 290 4.3 9.6 0.00 0.00 0.00 34 1015.8
20260503225645 71 259 5.2 9.6 0.00 0.00 0.00 32 1015.9
20260503225147 71 217 4.3 8.7 0.00 0.00 0.00 33 1015.9
20260503224644 71 238 4.3 8.7 0.00 0.00 0.00 32 1015.9
20260503223649 71 205 3.5 7.8 0.00 0.00 0.00 32 1016.1
20260503222641 72 235 3.5 8.7 0.00 0.00 0.00 30 1016.1
20260503222138 71 248 4.3 8.7 0.00 0.00 0.00 30 1016.1
20260503221636 71 223 5.2 10.4 0.00 0.00 0.00 31 1016.2
20260503221138 71 270 7.0 12.2 0.00 0.00 0.00 31 1016.2
20260503220641 71 239 7.0 12.2 0.00 0.00 0.00 30 1016.3
20260503220136 72 257 3.5 12.2 0.00 0.00 0.00 30 1016.3
20260503215636 72 141 1.7 8.7 0.00 0.00 0.00 30 1016.3
20260503214637 71 193 5.2 11.3 0.00 0.00 0.00 30 1016.6
20260503214134 71 266 5.2 13.0 0.00 0.00 0.00 29 1016.6
20260503213637 72 244 5.2 13.0 0.00 0.00 0.00 29 1016.6
20260503213131 72 243 4.3 10.4 0.00 0.00 0.00 29 1016.7
20260503212636 72 222 3.5 10.4 0.00 0.00 0.00 29 1016.8
20260503212130 72 257 1.7 7.0 0.00 0.00 0.00 30 1016.9
20260503211630 72 233 2.6 9.6 0.00 0.00 0.00 29 1017.0
20260503211130 71 144 3.5 10.4 0.00 0.00 0.00 30 1017.0
20260503210628 71 144 5.2 12.2 0.00 0.00 0.00 30 1017.1
20260503210126 71 241 6.1 13.9 0.00 0.00 0.00 30 1017.2
20260503205628 71 216 5.2 13.9 0.00 0.00 0.00 30 1017.3
20260503205134 71 259 4.3 10.4 0.00 0.00 0.00 31 1017.3
20260503204630 71 331 5.2 12.2 0.00 0.00 0.00 30 1017.5
20260503203633 71 233 1.7 6.1 0.00 0.00 0.00 31 1017.6
20260503203132 71 205 0.9 6.1 0.00 0.00 0.00 31 1017.8
20260503202629 71 267 2.6 9.6 0.00 0.00 0.00 31 1017.8
20260503202129 70 192 3.5 9.6 0.00 0.00 0.00 31 1018.0
20260503201634 70 269 4.3 9.6 0.00 0.00 0.00 30 1018.1
20260503201125 70 265 5.2 9.6 0.00 0.00 0.00 31 1018.3
20260503200620 69 275 4.3 8.7 0.00 0.00 0.00 31 1018.3
20260503195624 69 264 4.3 11.3 0.00 0.00 0.00 30 1018.6
20260503195125 69 210 4.3 10.4 0.00 0.00 0.00 32 1018.8
20260503194620 69 236 4.3 10.4 0.00 0.00 0.00 32 1019.0
20260503194120 70 215 3.5 8.7 0.00 0.00 0.00 33 1019.1
20260503193624 70 252 2.6 8.7 0.00 0.00 0.00 31 1019.2
20260503193123 69 269 1.7 6.1 0.00 0.00 0.00 32 1019.2
20260503192120 69 79 2.6 8.7 0.00 0.00 0.00 32 1019.5
20260503191623 69 227 1.7 5.2 0.00 0.00 0.00 31 1019.7
20260503191121 68 348 3.5 12.2 0.00 0.00 0.00 32 1019.7
20260503190618 68 140 6.1 13.0 0.00 0.00 0.00 32 1019.9
20260503190111 68 281 7.0 13.0 0.00 0.00 0.00 33 1020.1